ABS-6

Last updated on Sun Apr 12 2026 00:02:50 GMT+0000 (Coordinated Universal Time)

1 25924U 99053A 26101.51572448 -.00000118 00000+0 00000+0 0 9993 2 25924 0.0647 86.1388 0003276 320.3273 137.9129 1.00271681 97175
UTC large
Height (km)
Speed (km/s)
/
Latitude / Longitude
Inclination (degrees)
Orbital Period (minutes)
Azimuth
Elevation
Range (km)
Doppler Factor

Next 0 passes for location: London (51.5072 / 0.1276)

Sorry there are no passes over London.
ABS-6